C/2017 M5 ( TOTAS )

Japanese version
Home page
Updated on July 30, 2018

---------------------------------------------------------------------

* Profile

Discovery Date June 23, 2017
Magnitude 18.6 mag
Discoverer Teide Observatory Tenerife Asteroid Survey (TOTAS)

* Pictures

* Orbital Elements

Epoch 2018 June 11.0 TT = JDT 2458280.5
T 2018 June 2.98525 TT                                  MPCW
q   5.9894754            (2000.0)            P               Q
z  -0.0006367      Peri.   92.66215     +0.60573960     +0.77901854
 +/-0.0000023      Node   216.26281     -0.79431030     +0.58020062
e   1.0038137      Incl.   15.88487     -0.04637540     +0.23769170
From 135 observations 2016 May 30-2018 Mar. 17, mean residual 0".5.

* Magnitudes Graph

        m1 = -1.0 + 5 log d + 20.0 log r

---------------------------------------------------------------------

The orbital elements are published on M.P.E.C. 2018-F152.
The magnitudes graphs are made with Comet for Windows.

---------------------------------------------------------------------

Copyright(C) Seiichi Yoshida (comet@aerith.net). All rights reserved.